Showing default

LAGEOS 1, 8820

Orbit data source: Space-Track

LAGEOS 1, 8820 is a payload satellite owned by NASA MSFC (US) that was launched on Tue, 04 May 1976 UTC via a DELTA 2913 launch vehicle from the Air Force Western Test Range (AFWTR). Payload-class satellites include a variety of spacecraft equipped with specific instruments for various scientific and technological missions. These include communications satellites like Starlink; space stations such as the ISS; scientific satellites like the Hubble; Earth observation satellites from companies like Planet Labs, Umbra, and HawkEye 360; GPS; miniature CubeSats for education and research; and military/defense satellites.

Loading next visibility...
Identifier
8820, 1976-039A
Orbit
Active
Country
Flag of USUS
Related business
Manufacturer
Bendix
Mission
Operational spacecraft
Bus & Motor
LAGEOS, Unknown motor
Mass
411 kg wet, 411 kg dry
Launch date (UTC)
1976-05-04 (49 years ago)
Launch vehicle
DELTA 2913
Launch site
Air Force Western Test Range (AFWTR)
Object type
Payload
Rocket body
Debris
Shape & HBR
Unknown
Radar Cross Section
Medium (>0.1 m² and <1 m²)

Expand to show TLE details & history
Last TLE update: 1 day ago

TLE from 1 day ago
0 LAGEOS 1
1 08820U 76039A   25287.70369850  .00000034  00000-0  00000-0 0  9992
2 08820 109.8418  95.2660 0044665 354.8270  22.0636  6.38664838897468
Epoch: 2025-10-14T16:53Z
TLE epoch observation values (Epoch: 2025-10-14T16:53:19.550Z)
Latitude
16.04399°
Longitude
172.51046°
Altitude
5,843.085 km
Speed
5.724 km/s
True Right ascension
05h 57m 19s
True Declination
15° 59' 27"
Sunlit
Object was in daylight at epoch
Visualization orbit readout
Latitude
Unknown
Longitude
Unknown
Altitude
Unknown
Speed
Unknown
Apparent Right ascension
Unknown
Apparent Declination
Unknown
Sunlit
N/A
Visualization observer readout
Local Sidereal Time
12:02:33
Azimuth
Unknown
Elevation
Unknown
Doppler factor
Unknown
Orbital elements
Apogee altitude
5,946.685 km
Perigee altitude
5,837.077 km
Semi-major axis
12,270.018 km
Eccentricity
0.00447
Inclination
109.8418°
RAAN
95.266°
Arg. of periapsis
354.827°
True anomaly
22.25686°
Mean anomaly
22.0636°
Eccentric anomaly
22.16013°
Mean motion
1.59689 °/min
Orbital period
225.44 mins
BSTAR
0
Loading maneuver chart data...
Computing Atmospheric mass density...
Loading historical data...
Loading historical data...
Loading historical data...
Loading historical data...
Loading historical data...
Loading historical data...
Loading historical data...
Other satellites on launch #39 in the year 1976 (1976-05-04 UTC)

Documentation

Showing up to 5 results
|